Weather History for Lake Charles Regional, LA

Change the Weather History Date:

Monday, February 18, 2013

  Actual Average Record
Temperature  
Mean Temperature 65 °F 56 °F  
Max Temperature 72 °F 65 °F 79 °F (2000)
Min Temperature 57 °F 46 °F 20 °F (1910)
Degree Days  
Heating Degree Days 0 10  
Month to date heating degree days 116 204  
Since 1 July heating degree days 898 1195  
Cooling Degree Days 0 0  
Month to date cooling degree days 6 0  
Year to date cooling degree days 30 10  
Growing Degree Days 16 (Base 50)    
Moisture  
Dew Point 58 °F    
Average Humidity 67    
Maximum Humidity 73    
Minimum Humidity 61    
Precipitation  
Precipitation 0.49 in 0.13 in 3.51 in (2012)
Month to date precipitation 4.33 2.31  
Year to date precipitation 15.71 7.54  
Snow  
Snow 0.00 in 0.00 in T in (1973)
Month to date snowfall 0.0 0.1  
Since 1 July snowfall 0.0 0.1  
Snow Depth 0.00 in    
Sea Level Pressure  
Sea Level Pressure 30.01 in    
Wind  
Wind Speed 13 mph (SSW)    
Max Wind Speed 24 mph    
Max Gust Speed 36 mph    
Visibility 9 miles    
Events Rain , Thunderstorm    
T = Trace of Precipitation, MM = Missing Value Source: NWS Daily Summary

Daily Weather History Graph

Daily Weather History Graph

Search for Another Location

Airport:

Trip Planner

Search our weather history database for the weather conditions in past years. The results will help you decide how hot, cold, wet, or windy it might be!

Date:

Astronomy

Feb. 18, 2013 Rise Set
Actual Time 6:49 AM CST 6:04 PM CST
Civil Twilight 6:25 AM CST 6:28 PM CST
Nautical Twilight 5:57 AM CST 6:56 PM CST
Astronomical Twilight 5:29 AM CST 7:24 PM CST
Moon 12:02 PM CST (2/18) 1:18 AM CST (2/18)
Length of Visible Light 12h 02m
Length of Day
11h 14m
First Quarter, 58% of the Moon is Illuminated
Feb 18
First Quarter
Feb 25
Full
Mar 4
Last Quarter
Mar 11
New
Mar 19
First Quarter

Hourly Weather History & Observations

Time (CST) Temp. Dew Point Humidity Pressure Visibility Wind Dir Wind Speed Gust Speed Precip Events Conditions
12:53 AM 57.0 °F 48.0 °F 72% 30.15 in 10.0 mi South 9.2 mph - N/A   Scattered Clouds
1:53 AM 57.9 °F 48.9 °F 72% 30.13 in 10.0 mi SSE 9.2 mph - N/A   Partly Cloudy
2:53 AM 59.0 °F 48.9 °F 69% 30.11 in 10.0 mi South 6.9 mph - N/A   Mostly Cloudy
3:53 AM 60.1 °F 51.1 °F 72% 30.09 in 10.0 mi SSE 9.2 mph - N/A   Overcast
4:53 AM 61.0 °F 51.1 °F 70% 30.08 in 10.0 mi SSE 8.1 mph - N/A   Overcast
5:53 AM 62.1 °F 52.0 °F 70% 30.08 in 10.0 mi SSE 9.2 mph - N/A   Overcast
6:53 AM 63.0 °F 53.1 °F 70% 30.06 in 10.0 mi SSE 11.5 mph 19.6 mph N/A   Overcast
7:53 AM 64.4 °F 53.6 °F 68% 30.04 in 10.0 mi SSE 11.5 mph 18.4 mph N/A   Overcast
8:53 AM 66.0 °F 54.0 °F 65% 30.09 in 10.0 mi SSE 13.8 mph 20.7 mph N/A   Overcast
9:53 AM 68.0 °F 55.9 °F 65% 30.07 in 10.0 mi SSE 13.8 mph 23.0 mph N/A   Overcast
10:53 AM 69.1 °F 57.0 °F 65% 30.06 in 10.0 mi South 20.7 mph 33.4 mph N/A   Overcast
11:53 AM 70.0 °F 57.0 °F 63% 30.05 in 10.0 mi South 15.0 mph 29.9 mph N/A   Overcast
12:53 PM 71.1 °F 57.9 °F 63% 30.02 in 10.0 mi South 17.3 mph 25.3 mph N/A   Overcast
1:44 PM 69.8 °F 60.8 °F 73% 29.96 in 10.0 mi South 20.7 mph 26.5 mph N/A   Overcast
1:53 PM 71.1 °F 60.1 °F 68% 29.97 in 10.0 mi South 17.3 mph 29.9 mph N/A   Overcast
2:27 PM 71.6 °F 60.8 °F 69% 29.93 in 10.0 mi South 20.7 mph 28.8 mph N/A   Overcast
2:53 PM 70.0 °F 61.0 °F 73% 29.95 in 10.0 mi South 18.4 mph 28.8 mph N/A   Overcast
3:02 PM 71.6 °F 60.8 °F 69% 29.92 in 10.0 mi South 19.6 mph 34.5 mph N/A   Overcast
3:53 PM 71.1 °F 61.0 °F 70% 29.94 in 10.0 mi South 17.3 mph 28.8 mph N/A   Overcast
4:53 PM 69.1 °F 61.0 °F 75% 29.93 in 10.0 mi South 17.3 mph 24.2 mph 0.00 in   Mostly Cloudy
5:53 PM 68.0 °F 61.0 °F 78% 29.93 in 10.0 mi South 11.5 mph 20.7 mph 0.00 in Rain Light Rain
6:20 PM 69.8 °F 60.8 °F 73% 29.90 in 10.0 mi South 13.8 mph 24.2 mph N/A Thunderstorm Overcast
6:49 PM 66.2 °F 62.6 °F 88% 29.90 in 10.0 mi South 11.5 mph 19.6 mph 0.04 in Rain Light Rain
6:53 PM 66.9 °F 63.0 °F 87% 29.93 in 10.0 mi South 9.2 mph 19.6 mph 0.05 in Rain Light Rain
7:53 PM 66.9 °F 63.0 °F 87% 29.94 in 10.0 mi SSW 11.5 mph 19.6 mph 0.00 in Rain Light Rain
8:53 PM 66.0 °F 63.0 °F 90% 29.97 in 4.0 mi West 8.1 mph - 0.01 in Rain , Thunderstorm Heavy Rain
8:57 PM 66.2 °F 62.6 °F 88% 29.95 in 2.5 mi West 10.4 mph 17.3 mph 0.02 in Rain Heavy Rain
9:03 PM 66.2 °F 62.6 °F 88% 29.94 in 1.8 mi WSW 13.8 mph 24.2 mph 0.10 in Rain Heavy Rain
9:17 PM 66.2 °F 62.6 °F 88% 29.94 in 3.0 mi WSW 17.3 mph 27.6 mph 0.33 in Rain Heavy Rain
9:53 PM 66.9 °F 64.0 °F 90% 29.99 in 10.0 mi SW 15.0 mph 26.5 mph 0.37 in Rain , Thunderstorm Light Rain
10:01 PM 66.2 °F 62.6 °F 88% 29.97 in 10.0 mi SW 13.8 mph 26.5 mph 0.00 in Thunderstorm Overcast
10:12 PM 66.2 °F 60.8 °F 83% 29.97 in 10.0 mi SW 11.5 mph 19.6 mph 0.00 in   Overcast
10:50 PM 66.2 °F 62.6 °F 88% 29.97 in 10.0 mi WSW 9.2 mph - 0.00 in   Overcast
10:53 PM 66.0 °F 63.0 °F 90% 29.99 in 10.0 mi WSW 10.4 mph - 0.00 in   Overcast
11:30 PM 66.2 °F 62.6 °F 88% 29.98 in 10.0 mi WSW 9.2 mph - N/A   Mostly Cloudy
11:53 PM 60.1 °F 55.0 °F 83% 30.05 in 3.0 mi NW 10.4 mph 29.9 mph 0.02 in Rain , Thunderstorm Heavy Rain
11:58 PM 59.0 °F 55.4 °F 88% 30.03 in 2.5 mi WNW 9.2 mph 29.9 mph 0.04 in Rain , Thunderstorm Heavy Rain